This is the latest recevied weather packets stored in our database for station/object CW2401. If no packets are shown the sender has not sent any weather packets the latest 10 day(s).
| Time | Temp. | Humidity | Pressure | Rain* | Wind** | Luminosity | Snow |
|---|---|---|---|---|---|---|---|
| 1777319132 | 20.56° C | 53% | 1023 hPa | 0 mm | - | - | - |
| 1777318046 | 20° C | 54% | 1023.1 hPa | 0 mm | - | - | - |
| 1777317682 | 20° C | 53% | 1023.2 hPa | 0 mm | - | - | - |
| 1777316962 | 20° C | 54% | 1023.3 hPa | 0 mm | - | - | - |
| 1777315396 | 19.44° C | 55% | 1023.5 hPa | 0 mm | - | - | - |
| 1777314670 | 19.44° C | 56% | 1023.6 hPa | 0 mm | - | - | - |
| 1777313350 | 19.44° C | 56% | 1023.6 hPa | 0 mm | - | - | - |
| 1777313109 | 18.89° C | 57% | 1023.7 hPa | 0 mm | - | - | - |
| 1777311785 | 18.89° C | 56% | 1023.8 hPa | 0 mm | - | - | - |
| 1777311184 | 18.33° C | 56% | 1024 hPa | 0 mm | - | - | - |
| 1777310824 | 18.33° C | 57% | 1024.2 hPa | 0 mm | - | - | - |
| 1777309864 | 18.33° C | 56% | 1024.2 hPa | 0 mm | - | - | - |
| 1777309143 | 17.78° C | 59% | 1024.3 hPa | 0 mm | - | - | - |
| 1777308902 | 17.78° C | 58% | 1024.4 hPa | 0 mm | - | - | - |
| 1777308183 | 17.78° C | 61% | 1024.5 hPa | 0 mm | - | - | - |
| 1777307943 | 17.78° C | 62% | 1024.5 hPa | 0 mm | - | - | - |
| 1777307344 | 17.22° C | 60% | 1024.5 hPa | 0 mm | - | - | - |
| 1777307224 | 17.22° C | 60% | 1024.4 hPa | 0 mm | - | - | - |
| 1777305784 | 16.67° C | 62% | 1024.8 hPa | 0 mm | - | - | - |
| 1777304822 | 16.67° C | 64% | 1024.9 hPa | 0 mm | - | - | - |
| 1777303499 | 16.67° C | 64% | 1025.2 hPa | 0 mm | - | - | - |
| 1777302532 | 16.67° C | 65% | 1025.3 hPa | 0 mm | - | - | - |
| 1777302407 | 16.67° C | 65% | 1025.3 hPa | 0 mm | - | - | - |
| 1777301922 | 16.67° C | 63% | 1025.3 hPa | 0 mm | - | - | - |
| 1777301318 | 16.67° C | 64% | 1025.3 hPa | 0 mm | - | - | - |
* Rain latest hour (hover to see other rain measurements)
** Current wind speed in m/s (hover to see current wind gust speed)